DW9029 Weather Reports


Display with metric or nautical units.
time (UTC)temp
F
wind
direction
speed
MPH
gust
MPH
rain 1hr
in
rain 24hr
in
rain mn
in
humidity
%
barometer
mb
20260503040904 61 219 0.0 0.0 0.00 0.00 0.00 87 1013.7
20260503040404 61 220 0.0 0.0 0.00 0.00 0.00 87 1013.7
20260503034904 61 220 0.0 0.0 0.00 0.00 0.00 87 1013.9
20260503034404 61 220 0.0 0.0 0.00 0.00 0.00 87 1013.8
20260503033904 61 220 0.0 0.0 0.00 0.00 0.00 87 1013.8
20260503033404 61 220 0.0 0.0 0.00 0.00 0.00 86 1013.9
20260503031904 62 220 0.0 0.0 0.00 0.00 0.00 86 1013.9
20260503031405 62 220 0.0 0.0 0.00 0.00 0.00 85 1013.9
20260503030404 62 223 0.0 0.0 0.00 0.00 0.00 86 1014.0
20260503024904 62 209 0.0 0.0 0.00 0.00 0.00 86 1014.1
20260503024404 62 208 0.0 0.0 0.00 0.00 0.00 85 1014.0
20260503023904 62 207 0.0 0.0 0.00 0.00 0.00 85 1014.0
20260503023404 62 207 0.0 0.0 0.00 0.00 0.00 85 1014.0
20260503021904 62 209 0.0 0.0 0.00 0.00 0.00 84 1013.9
20260503021404 62 210 0.0 0.0 0.00 0.00 0.00 84 1014.0
20260503020904 62 208 0.0 3.0 0.00 0.00 0.00 84 1014.1
20260503014904 62 188 0.0 0.0 0.00 0.00 0.00 84 1014.2
20260503014404 62 181 0.0 0.0 0.00 0.00 0.00 83 1014.3
20260503013904 62 183 0.0 0.0 0.00 0.00 0.00 83 1014.4
20260503013404 62 173 0.0 0.0 0.00 0.00 0.00 83 1014.4
20260503011904 62 201 0.0 0.0 0.00 0.00 0.00 83 1014.6
20260503011404 62 188 1.0 5.0 0.00 0.00 0.00 82 1014.7
20260503010904 62 189 1.0 5.0 0.00 0.00 0.00 82 1014.7
20260503003904 61 221 1.0 3.0 0.00 0.00 0.00 82 1015.1
20260503003404 61 196 0.0 0.0 0.00 0.00 0.00 82 1015.1
20260503001904 61 161 0.0 0.0 0.00 0.00 0.00 82 1015.1
20260503001404 61 159 0.0 1.0 0.00 0.00 0.00 82 1015.2
20260503000904 61 176 0.0 0.0 0.00 0.00 0.00 82 1015.2
20260503000404 61 168 0.0 0.0 0.00 0.00 0.00 81 1015.2
20260502234904 61 170 0.0 0.0 0.00 0.00 0.00 80 1015.3
20260502233904 62 190 0.0 0.0 0.00 0.00 0.00 79 1015.3
20260502233404 62 192 0.0 2.0 0.00 0.00 0.00 79 1015.3
20260502231904 63 227 0.0 3.0 0.00 0.00 0.00 78 1015.4
20260502231405 63 261 0.0 0.0 0.00 0.00 0.00 78 1015.4
20260502230904 63 218 0.0 3.0 0.00 0.00 0.00 78 1015.4
20260502230404 63 209 0.0 5.0 0.00 0.00 0.00 78 1015.4
20260502224904 63 221 0.0 0.0 0.00 0.00 0.00 77 1015.3
20260502223904 63 188 1.0 5.0 0.00 0.00 0.00 77 1015.2
20260502221904 63 217 2.0 3.0 0.00 0.00 0.00 76 1015.2
20260502221404 64 223 0.0 6.0 0.00 0.00 0.00 76 1015.2
20260502220904 64 226 0.0 0.0 0.00 0.00 0.00 77 1015.2
20260502220404 64 222 0.0 3.0 0.00 0.00 0.00 77 1015.2
20260502214404 64 229 0.0 3.0 0.00 0.00 0.00 77 1015.1
20260502213904 64 225 1.0 5.0 0.00 0.00 0.00 77 1015.2
20260502213404 64 214 2.0 6.0 0.00 0.00 0.00 77 1015.1
20260502211904 65 205 1.0 5.0 0.00 0.00 0.00 76 1015.0
20260502211404 65 227 0.0 7.0 0.00 0.00 0.00 76 1015.0
20260502210904 65 190 1.0 3.0 0.00 0.00 0.00 77 1015.0
20260502210404 65 176 0.0 6.0 0.00 0.00 0.00 76 1014.9
20260502204904 66 221 1.0 3.0 0.00 0.00 0.00 75 1014.7
20260502204404 66 217 0.0 0.0 0.00 0.00 0.00 75 1014.6
20260502203904 66 221 1.0 3.0 0.00 0.00 0.00 75 1014.7
20260502203404 66 202 2.0 9.0 0.00 0.00 0.00 75 1014.5
20260502201904 66 256 2.0 7.0 0.00 0.00 0.00 75 1014.5
20260502201404 67 216 1.0 7.0 0.00 0.00 0.00 75 1014.5
20260502200904 67 249 2.0 7.0 0.00 0.00 0.00 75 1014.3
20260502194404 67 234 0.0 3.0 0.00 0.00 0.00 75 1014.1
20260502193904 67 258 2.0 5.0 0.00 0.00 0.00 75 1014.1
20260502193404 67 250 2.0 10.0 0.00 0.00 0.00 75 1014.1
20260502191904 68 227 4.0 7.0 0.00 0.00 0.00 73 1014.0
20260502190405 69 239 2.0 8.0 0.00 0.00 0.00 73 1013.9
20260502184904 69 223 2.0 10.0 0.00 0.00 0.00 72 1013.9
20260502184404 69 232 6.0 10.0 0.00 0.00 0.00 72 1014.0
20260502183904 69 248 3.0 12.0 0.00 0.00 0.00 72 1014.0
20260502183404 69 223 2.0 12.0 0.00 0.00 0.00 72 1014.0
20260502181904 70 208 7.0 12.0 0.00 0.00 0.00 71 1014.0
20260502181404 70 198 5.0 10.0 0.00 0.00 0.00 71 1014.0
20260502180904 70 223 7.0 12.0 0.00 0.00 0.00 71 1014.1
20260502180404 71 230 4.0 12.0 0.00 0.00 0.00 70 1014.0
20260502163904 71 235 1.0 12.0 0.00 0.00 0.00 70 1014.2
20260502163405 71 221 5.0 12.0 0.00 0.00 0.00 70 1014.2
20260502161904 71 222 5.0 12.0 0.00 0.00 0.00 71 1014.4
20260502161404 71 226 9.0 12.0 0.00 0.00 0.00 71 1014.4
20260502160904 71 218 8.0 14.0 0.00 0.00 0.00 70 1014.4
20260502160404 71 235 5.0 14.0 0.00 0.00 0.00 71 1014.3
20260502151904 71 282 3.0 7.0 0.00 0.00 0.00 70 1014.7
20260502150904 71 241 3.0 9.0 0.00 0.00 0.00 70 1014.9
20260502130404 73 230 1.0 6.0 0.00 0.00 0.00 60 1015.9
20260502123404 72 214 2.0 7.0 0.00 0.00 0.00 63 1016.2
20260502121904 72 255 2.0 8.0 0.00 0.00 0.00 63 1016.4
20260502121404 72 247 3.0 10.0 0.00 0.00 0.00 63 1016.5
20260502120904 72 142 0.0 1.0 0.00 0.00 0.00 64 1016.5
20260502120404 72 181 0.0 5.0 0.00 0.00 0.00 64 1016.4
20260502114904 71 188 1.0 5.0 0.00 0.00 0.00 65 1016.2
20260502114404 71 145 0.0 8.0 0.00 0.00 0.00 65 1016.3
20260502113404 71 116 3.0 7.0 0.00 0.00 0.00 65 1016.5
20260502111904 71 131 1.0 6.0 0.00 0.00 0.00 66 1016.5
20260502111405 70 169 2.0 8.0 0.00 0.00 0.00 66 1016.6
20260502110904 70 114 5.0 8.0 0.00 0.00 0.00 66 1016.8
20260502104904 70 60 4.0 8.0 0.00 0.00 0.00 66 1017.1
20260502104404 70 306 0.0 3.0 0.00 0.00 0.00 67 1017.1
20260502103904 69 170 1.0 3.0 0.00 0.00 0.00 67 1017.3
20260502103404 70 234 2.0 7.0 0.00 0.00 0.00 67 1017.2
20260502101904 69 82 0.0 0.0 0.00 0.00 0.00 68 1017.4
20260502101404 69 79 0.0 0.0 0.00 0.00 0.00 68 1017.4
20260502100904 68 61 0.0 0.0 0.00 0.00 0.00 68 1017.4
20260502091404 68 65 0.0 0.0 0.00 0.00 0.00 69 1017.4
20260502090904 67 65 0.0 0.0 0.00 0.00 0.00 71 1017.4
20260502090404 66 65 1.0 3.0 0.00 0.00 0.00 72 1017.4
20260502071404 63 334 0.0 0.0 0.00 0.00 0.00 74 1017.2
20260502070905 63 334 0.0 2.0 0.00 0.00 0.00 74 1017.3
20260502070404 62 333 0.0 3.0 0.00 0.00 0.00 75 1017.2
20260502064904 62 329 2.0 3.0 0.00 0.00 0.00 76 1017.1
20260502064404 62 347 0.0 0.0 0.00 0.00 0.00 76 1017.1
20260502063404 62 315 0.0 2.0 0.00 0.00 0.00 75 1016.9
20260502061404 62 315 0.0 0.0 0.00 0.00 0.00 76 1016.9
20260502060904 62 315 0.0 0.0 0.00 0.00 0.00 76 1016.9
20260502060404 62 315 0.0 0.0 0.00 0.00 0.00 76 1016.9
20260502054904 62 315 0.0 0.0 0.00 0.00 0.00 76 1016.7
20260502054404 62 314 0.0 0.0 0.00 0.00 0.00 76 1016.6
20260502053904 62 314 0.0 1.0 0.00 0.00 0.00 76 1016.6
20260502053405 62 314 0.0 0.0 0.00 0.00 0.00 76 1016.6
20260502051904 62 313 0.0 0.0 0.00 0.00 0.00 76 1016.4
20260502051404 62 313 0.0 0.0 0.00 0.00 0.00 75 1016.4
20260502050904 62 313 0.0 0.0 0.00 0.00 0.00 75 1016.5
20260502050404 62 313 0.0 0.0 0.00 0.00 0.00 75 1016.4
20260502044904 62 279 0.0 0.0 0.00 0.00 0.00 75 1016.5
20260502044403 62 279 0.0 0.0 0.00 0.00 0.00 76 1016.4
20260502043904 62 279 0.0 0.0 0.00 0.00 0.00 76 1016.5
20260502043404 62 279 0.0 1.0 0.00 0.00 0.00 76 1016.6
20260502041904 62 279 0.0 0.0 0.00 0.00 0.00 76 1016.7
20260502041404 62 279 0.0 0.0 0.00 0.00 0.00 76 1016.6